Tracking 19638 objects as of 22-Apr-2019
HD Live streaming from Space Station
objects crossing your sky now

CBERS 1 DEB

Track CBERS 1 DEB now!
10-day predictions


NORAD ID: 31583
Int'l Code: 1999-057PE
Perigee: 721.1 km
Apogee: 725.0 km
Inclination: 98.4 °
Period: 99.1 minutes
Semi major axis: 7094 km
RCS: 0.0083 m2 (small)
Launch date: October 14, 1999
Source: China/Brazil (CHBZ)
Launch site: Taiyaun Space Center, China (TSC)

Note: This is SATELLITE DEBRIS
aabbcc
Your satellite tracking list
Your tracking list is empty




NASA's NSSDC Master Catalog

Two Line Element Set (TLE):
1 31583U 99057PE  19111.11191818  .00000889  00000-0  22659-3 0  9995
2 31583  98.4363  74.4566 0002719  43.5506 316.5904 14.52983227627892
Source of the keplerian elements: AFSPC